This is the latest recevied weather packets stored in our database for station/object F1ZVN-13. If no packets are shown the sender has not sent any weather packets the latest 10 day(s).
| Time | Temp. | Humidity | Pressure | Rain* | Wind** | Luminosity | Snow |
|---|---|---|---|---|---|---|---|
| 1777564356 | 8.89° C | 99% | 1010.6 hPa | 0 mm | 0 m/s | - | - |
| 1777564235 | 8.33° C | 99% | 1010.6 hPa | 0 mm | 0 m/s | - | - |
| 1777564118 | 8.89° C | 99% | 1010.6 hPa | 0 mm | 0 m/s | - | - |
| 1777563992 | 8.89° C | 99% | 1010.5 hPa | 0 mm | 0 m/s | - | - |
| 1777563662 | 8.33° C | 96% | 1010.6 hPa | 0 mm | 0 m/s | - | - |
| 1777563630 | 8.33° C | 96% | 1010.6 hPa | 0 mm | 0 m/s | - | - |
| 1777563515 | 8.33° C | 95% | 1010.6 hPa | 0 mm | 0 m/s | - | - |
| 1777563387 | 8.33° C | 96% | 1010.6 hPa | 0 mm | 0 m/s | - | - |
| 1777563268 | 8.33° C | 96% | 1010.6 hPa | 0 mm | 0 m/s | - | - |
| 1777563146 | 8.33° C | 96% | 1010.5 hPa | 0 mm | 0 m/s | - | - |
| 1777562915 | 8.33° C | 95% | 1010.5 hPa | 0 mm | 0 m/s | - | - |
| 1777562778 | 8.89° C | 93% | 1010.6 hPa | 0 mm | 0 m/s | - | - |
| 1777562661 | 8.89° C | 91% | 1010.4 hPa | 0 mm | 0 m/s | - | - |
| 1777562540 | 8.89° C | 88% | 1010.4 hPa | 0 mm | 0 m/s | - | - |
| 1777562418 | 8.89° C | 96% | 1010.4 hPa | 0 mm | 0 m/s | - | - |
| 1777562295 | 8.89° C | 96% | 1010.2 hPa | 0 mm | 0 m/s | - | - |
| 1777562175 | 8.89° C | 95% | 1010.2 hPa | 0 mm | 0 m/s | - | - |
| 1777561932 | 8.89° C | 94% | 1010.4 hPa | 0 mm | 0 m/s | - | - |
| 1777561811 | 8.89° C | 94% | 1010.4 hPa | 0 mm | 0 m/s | - | - |
| 1777561689 | 8.89° C | 91% | 1010.4 hPa | 0 mm | 0 m/s | - | - |
| 1777561571 | 8.89° C | 89% | 1010.4 hPa | 0 mm | 0 m/s | - | - |
| 1777561325 | 8.89° C | 88% | 1010.5 hPa | 0 mm | 0 m/s | - | - |
| 1777561240 | 8.89° C | 88% | 1010.4 hPa | 0 mm | 0 m/s | - | - |
| 1777561209 | 8.89° C | 88% | 1010.4 hPa | 0 mm | 0 m/s | - | - |
| 1777560963 | 8.89° C | 86% | 1010.4 hPa | 0 mm | 0 m/s | - | - |
* Rain latest hour (hover to see other rain measurements)
** Current wind speed in m/s (hover to see current wind gust speed)